User: anonymous   Login
Location: Bergnerzell
(49.1816°N, 10.2565°E)
Time: 21:59:29
(UTC+00:00)
Language:

Cosmos 1315 Rocket - Orbit

View from above orbital plane
View from above orbital plane
View from above satellite
View from above satellite

Ground track
Ground track

The orbit data is extracted from the following two-line orbital elements,

1 12904U 81103B   24205.52049070  .00006215  00000-0  35093-3 0  9996
2 12904  81.1614 186.1753 0021680 131.4406 228.8688 15.12781776883125
Epoch (UTC): 23 July 2024 12:29:30
Eccentricity: 0.0021680
inclination: 81.1614°
perigee height: 513 km
apogee height: 542 km
right ascension of ascending node: 186.1753°
argument of perigee: 131.4406°
revolutions per day: 15.12781776
mean anomaly at epoch: 228.8688°
orbit number at epoch: 88312

The dashed part of the orbit path shows where the satellite is in the earth's shadow,  

DLR